Warning: Javascript must be enabled to use all the features on this page!


Page Loading - Please Wait...

* We've detected you're using a mobile device. Find our Next Generation Station Page here.
Click to hideNews Bulletins

Peak Streamflow for the Nation

USGS 09070500 COLORADO RIVER NEAR DOTSERO, CO

Eagle County, Colorado
Hydrologic Unit Code 14010001
Latitude  39°38'40.60", Longitude 107°04'40.85" NAD83
Drainage area 4,390  square miles
Gage datum 6,130 feet above NGVD29
Output formats
Table
Graph
Tab-separated file
peakfq (watstore) format
Reselect output format
Water
Year
Date Gage
Height
(feet)
Stream-
flow
(cfs)
1941 1941-05-15 9.66 13,3006
1942 1942-06-07 10.02 15,4006
1943 1943-06-02 8.96 12,2006
1944 1944-06-02 8.19 10,0006
1945 1945-06-15 8.00 9,5206
1946 1946-06-09 7.76 9,2706
1947 1947-06-21 9.58 14,0006
1948 1948-05-22 10.24 16,1006
1949 1949-06-18 10.07 15,1006
1950 1950-06-13 7.80 9,0206
1951 1951-06-22 9.52 13,5006
1952 1952-06-08 11.56 19,1006
1953 1953-06-14 9.18 12,8006
1954 1954-05-22 4.54 3,5306
1955 1955-08-05 5.58 5,3806
1956 1956-05-24 8.75 11,5006
1957 1957-06-08 11.16 17,7006
1958 1958-05-30 10.04 14,4006
1959 1959-06-10 7.04 7,6306
1960 1960-06-05 7.36 8,2706
1961 1961-05-31 6.32 6,3606
1962 1962-05-13 10.22 14,3006
1963 1963-05-11 4.48 3,5206
1964 1964-05-26 6.34 6,4606
1965 1965-06-18 8.77 11,6006
1966 1966-05-08 4.872 4,0706
1967 1967-05-26 6.17 6,2206
1968 1968-06-06 7.72 9,2706
1969 1969-06-25 6.63 6,7306
1970 1970-05-22 10.04 13,9006
1971 1971-06-25 8.35 10,3006
1972 1972-06-07 7.53 8,4206
1973 1973-06-15 8.98 11,3006
1974 1974-05-10 8.61 11,2006
1975 1975-06-09 7.70 9,4106
1976 1976-07-12 6.76 7,3106
1977 1977-06-07 3.922 2,8006
1978 1978-06-16 9.01 11,6006
1979 1979-05-29 9.27 11,8006
1980 1980-06-12 8.59 10,7006
1981 1981-06-09 5.62 4,9006
1982 1982-06-29 6.832 6,8206
1983 1983-06-27 11.89 17,7006
1984 1984-05-25 14.20 22,2006
1985 1985-06-09 9.56 11,6006
1986 1986-06-07 9.32 11,1006
1987 1987-05-17 6.35 5,8406
1988 1988-06-07 6.64 6,3006
1989 1989-05-24 5.46 4,4206
1990 1990-06-08 5.86 5,0606
1991 1991-06-15 7.20 7,2006
1992 1992-05-27 4.90 3,7006
1993 1993-05-29 9.53 11,5006
1994 1994-06-02 5.642 4,6306
1995 1995-06-18 11.21 15,4001,6
1996 1996-05-20 10.46 13,8001,6
1997 1997-06-04 11.52 16,1006
1998 1998-06-02 7.32 7,5506
1999 1999-06-09 7.75 8,3106
2000 2000-05-30 8.07 8,7906
2001 2001-05-20 5.43 4,4006
2002 2002-06-01 3.61 2,0206
2003 2003-06-02 9.54 11,7006
2004 2004-06-08 4.51 3,2406
2005 2005-05-24 7.23 7,3906
2006 2006-05-23 8.44 9,6006
2007 2007-06-19 6.84 6,7206
2008 2008-05-22 10.11 13,0006
2009 2009-05-21 8.86 10,4006
2010 2010-06-08 10.97 14,6006
2011 2011-06-07 12.64 18,5006
2012 2012-07-24 5.83 5,0206
2013 2013-05-18 6.40 5,9906
2014 2014-06-01 12.12 17,2006
2015 2015-06-18 10.30 13,0006
2016 2016-06-10 9.70 11,7006
2017 2017-06-09 8.91 10,0006
2018 2018-05-13 5.43 4,3206
2019 2019-07-01 10.32 12,5006
2020 2020-06-02 7.93 8,0606
2021 2021-06-05 4.48 3,0506
?
  Peak Gage-Height Qualification Codes.
?
  Peak Streamflow Qualification Codes.